Tracking 25710 objects as of 5-Jul-2022
HD Live streaming from Space Station
objects crossing your sky now

FENGYUN 1C DEB

Track FENGYUN 1C DEB now!
10-day predictions


NORAD ID: 30028
Int'l Code: 1999-025ND
Perigee: 602.4 km
Apogee: 886.3 km
Inclination: 98.1 °
Period: 99.6 minutes
Semi major axis: 7115 km
RCS: 0.049 m2 (small)
Launch date: May 10, 1999
Source: People's Republic of China (PRC)
Launch site: Taiyaun Space Center, China (TSC)

Note: This is SATELLITE DEBRIS
aabbcc
Your satellite tracking list
Your tracking list is empty




NASA's NSSDC Master Catalog

Two Line Element Set (TLE):
1 30028U 99025ND  22185.76141309  .00000595  00000-0  13981-3 0  9991
2 30028  98.1342 204.5835 0199509 138.3018 279.0404 14.46477230815026
Source of the keplerian elements: AFSPC